This demonstration page uses our WeatherBlox Daily Observations layout. Learn more.

Left ArrowRight Arrow

Hourly Observations for November 17, 2020

Temp ( °F °C ) Dew Point ( °F °C ) Humidity (%) Winds ( mph kmh ) Pressure ( in mb ) Visibility ( mi km ) Precip ( " mm )
12:53 am 00:53 Clear 42 5.6 27 -2.8 55 55 WSW 6 9 30.08 1019 10 16 0.00 0.00
1:53 am 01:53 Clear 40 4.4 27 -2.8 60 60 W 5 7 30.09 1019 10 16 0.00 0.00
2:53 am 02:53 Clear 45 7.2 31 -0.6 58 58 WNW 13 20 30.11 1020 10 16 0.00 0.00
3:53 am 03:53 Clear 44 6.7 32 0 63 63 WNW 13 20 30.14 1021 10 16 0.00 0.00
4:53 am 04:53 Clear 42 5.6 33 0.6 71 71 W 12 19 30.17 1022 10 16 0.00 0.00
5:53 am 05:53 Mostly Clear 41 5 33 0.6 73 73 WNW 13 20 30.22 1024 10 16 0.00 0.00
6:53 am 06:53 Mostly Clear 39 3.9 32 0 76 76 WNW 12 19 30.26 1025 10 16 0.00 0.00
7:53 am 07:53 Sunny 38 3.3 31 -0.6 76 76 WNW 8 13 30.30 1026 10 16 0.00 0.00
8:53 am 08:53 Sunny 41 5 28 -2.2 60 60 NW 12 19 30.35 1028 10 16 0.00 0.00
9:53 am 09:53 Mostly Cloudy 39 3.9 28 -2.2 65 65 NW 17 28 30.40 1029 10 16 0.00 0.00
10:53 am 10:53 Mostly Cloudy 41 5 26 -3.3 55 55 NW 13 20 30.43 1031 10 16 0.00 0.00
11:53 am 11:53 Partly Cloudy 42 5.6 24 -4.4 49 49 WNW 15 24 30.45 1031 10 16 0.00 0.00
12:53 pm 12:53 Partly Cloudy 43 6.1 25 -3.9 49 49 NW 16 26 30.45 1031 10 16 0.00 0.00
1:53 pm 13:53 Mostly Cloudy 42 5.6 24 -4.4 49 49 NW 14 22 30.47 1032 10 16 0.00 0.00
2:53 pm 14:53 Partly Cloudy 42 5.6 23 -5 47 47 W 9 15 30.47 1032 10 16 0.00 0.00
3:53 pm 15:53 Sunny 42 5.6 22 -5.6 45 45 NW 16 26 30.48 1032 10 16 0.00 0.00
4:53 pm 16:53 Sunny 40 4.4 22 -5.6 49 49 WNW 12 19 30.50 1033 10 16 0.00 0.00
5:53 pm 17:53 Clear 36 2.2 22 -5.6 57 57 WNW 8 13 30.51 1033 10 16 0.00 0.00
6:53 pm 18:53 Clear 33 0.6 21 -6.1 61 61 W 6 9 30.53 1034 10 16 0.00 0.00
7:53 pm 19:53 Clear 34 1.1 22 -5.6 61 61 WNW 5 7 30.54 1034 10 16 0.00 0.00
8:53 pm 20:53 Clear 33 0.6 22 -5.6 64 64 W 5 7 30.54 1034 10 16 0.00 0.00
9:53 pm 21:53 Clear 28 -2.2 21 -6.1 75 75 W 3 6 30.55 1034 10 16 0.00 0.00
10:53 pm 22:53 Clear 24 -4.4 19 -7.2 81 81 Calm 30.55 1035 10 16 0.00 0.00
11:53 pm 23:53 Clear 23 -5 19 -7.2 85 85 Calm 30.56 1035 10 16 0.00 0.00

Powered by AerisWeather